TimeNDT,TemperatureF,Dew PointF,Humidity,Sea Level PressureIn,VisibilityMPH,Wind Direction,Wind SpeedMPH,Gust SpeedMPH,PrecipitationIn,Events,Conditions,WindDirDegrees,DateUTC
5:30 AM,60.8,59.0,94,30.14,12.0,South,11.5,-,N/A,,Mostly Cloudy,190,2012-10-08 08:00:00
5:57 AM,-9999,-9999,N/A,-9999,12.0,South,8.1,-,N/A,,Overcast,180,2012-10-08 08:27:00
6:30 AM,60.8,59.0,94,30.14,15.0,South,5.8,-,N/A,,Overcast,190,2012-10-08 09:00:00
7:22 AM,-9999,-9999,N/A,-9999,15.0,South,8.1,-,N/A,,Overcast,190,2012-10-08 09:52:00
7:30 AM,62.6,57.2,82,30.13,15.0,South,6.9,-,N/A,,Mostly Cloudy,180,2012-10-08 10:00:00
8:30 AM,62.6,57.2,82,30.13,15.0,South,11.5,-,N/A,,Overcast,170,2012-10-08 11:00:00
9:30 AM,64.4,59.0,83,30.12,15.0,South,13.8,-,N/A,,Overcast,170,2012-10-08 12:00:00
10:30 AM,64.4,60.8,88,30.12,15.0,South,11.5,-,N/A,,Overcast,170,2012-10-08 13:00:00
11:08 AM,-9999,-9999,N/A,-9999,15.0,South,11.5,-,N/A,,Overcast,170,2012-10-08 13:38:00
11:12 AM,-9999,-9999,N/A,-9999,15.0,South,10.4,-,N/A,Rain,Light Rain Showers,170,2012-10-08 13:42:00
11:30 AM,64.4,60.8,88,30.09,15.0,South,13.8,20.7,N/A,Rain,Light Rain Showers,170,2012-10-08 14:00:00
11:36 AM,-9999,-9999,N/A,-9999,15.0,South,12.7,20.7,N/A,,Overcast,170,2012-10-08 14:06:00
12:30 PM,64.4,60.8,88,30.06,15.0,South,15.0,27.6,N/A,Rain,Light Rain Showers,180,2012-10-08 15:00:00
1:30 PM,66.2,60.8,83,30.01,15.0,South,13.8,21.9,N/A,,Overcast,180,2012-10-08 16:00:00
1:45 PM,-9999,-9999,N/A,-9999,12.0,South,15.0,21.9,N/A,Rain,Light Rain Showers,180,2012-10-08 16:15:00
2:11 PM,-9999,-9999,N/A,-9999,15.0,South,15.0,23.0,N/A,Rain,Light Rain Showers,180,2012-10-08 16:41:00
2:30 PM,66.2,62.6,88,29.98,15.0,South,17.3,24.2,N/A,Rain,Light Rain Showers,180,2012-10-08 17:00:00
3:20 PM,-9999,-9999,N/A,-9999,15.0,South,20.7,36.8,N/A,,Overcast,190,2012-10-08 17:50:00
3:30 PM,66.2,62.6,88,29.99,15.0,SSW,19.6,32.2,N/A,Rain,Light Rain Showers,200,2012-10-08 18:00:00
4:11 PM,-9999,-9999,N/A,-9999,15.0,South,20.7,33.4,N/A,Rain,Light Rain Showers,190,2012-10-08 18:41:00
4:30 PM,66.2,62.6,88,29.97,15.0,South,18.4,29.9,N/A,Rain,Light Rain Showers,190,2012-10-08 19:00:00